Weather in Novoilyinka

Russia / Tomsk District     56°59′02″N   84°05′16″E
temp.,
°C
wind,
m/s
gust,
m/s
humid.,
%
clouds,
%
prec.,
mm/h
press.,
hPa
HPBL,
m
12 august, fri
fri1201:00+13nne38770 0.0 1015131
04:00+10nne35792 0.0 101491
07:00+10nne37780 0.0 1015159
10:00+17ne46530 0.0 1015559
13:00+20ne45421 0.0 10141298
16:00+21nne33390 0.0 10121458
19:00+20nne35540 0.0 1012258
22:00+13ne33731 0.0 101238
13 august, sat
sat1301:00+11ene22730 0.0 101115
04:00+9ene22770 0.0 101013
07:00+10e11770 0.0 100918
10:00+17ese12560 0.0 1008361
13:00+21sse224443 0.0 10061145
16:00+23ssw2342100 0.0 10041585
19:00+22sse23575 0.0 1003199
22:00+16w3874100 0.0 1002247
14 august, sun
sun1401:00+14wsw3697100 0.6 1001178
04:00+13ssw2696100 0.8 1000183
07:00+13ssw389988 1.1 999246
10:00+14sw51098100 1.3 999764
13:00+14wsw61192100 1.7 1000834
16:00+13wsw6119085 0.5 1000807
19:00+11w71394100 1.4 1001839
22:00+11w61396100 0.3 10021016
15 august, mon
mon1501:00+11wnw81596100 4.8 10031109
04:00+11w8149296 0.3 1005904
07:00+10w7148974 0.3 1007727
10:00+13w710662 0.0 1008918
13:00+16wnw7950100 0.0 10081951
16:00+15wnw6959100 0.1 10091571
19:00+14wnw485968 0.2 10101471
22:00+10w397796 0.1 1011341
16 august, tue
tue1601:00+7w499475 0.1 1010238
04:00+8w4892100 0.1 1010341
07:00+9wnw4993100 0.4 1010554
10:00+10wnw5890100 0.6 1011717
13:00+13nw4856100 0.7 10111634
16:00+13nw5856100 0.0 10111674
19:00+12wnw485967 0.0 10121342
22:00+8w367977 0.0 1012149